Year,Month,Day,Hour,Minute,Value (Times are PST for temperature in C)
2011,07,24,00,00,14.10
2011,07,24,00,01,14.10
2011,07,24,00,02,14.10
2011,07,24,00,03,14.10
2011,07,24,00,04,14.10
2011,07,24,00,05,14.10
2011,07,24,00,06,14.20
2011,07,24,00,07,14.20
2011,07,24,00,08,14.20
2011,07,24,00,09,14.20
2011,07,24,00,10,14.20
2011,07,24,00,11,14.20
2011,07,24,00,12,14.20
2011,07,24,00,13,14.20
2011,07,24,00,14,14.20
2011,07,24,00,15,14.20
2011,07,24,00,16,14.20
2011,07,24,00,17,14.20
2011,07,24,00,18,14.20
2011,07,24,00,19,14.20
2011,07,24,00,20,14.20
2011,07,24,00,21,14.20
2011,07,24,00,22,14.20
2011,07,24,00,23,14.20
2011,07,24,00,24,14.20
2011,07,24,00,25,14.20
2011,07,24,00,26,14.20
2011,07,24,00,27,14.20
2011,07,24,00,28,14.20
2011,07,24,00,29,14.20
2011,07,24,00,30,14.20
2011,07,24,00,31,14.20
2011,07,24,00,32,14.20
2011,07,24,00,33,14.30
2011,07,24,00,34,14.30
2011,07,24,00,35,14.30
2011,07,24,00,36,14.30
2011,07,24,00,37,14.30
2011,07,24,00,38,14.30
2011,07,24,00,39,14.40
2011,07,24,00,40,14.40
2011,07,24,00,41,14.40
2011,07,24,00,42,14.40
2011,07,24,00,43,14.40
2011,07,24,00,44,14.40
2011,07,24,00,45,14.40
2011,07,24,00,46,14.40
2011,07,24,00,47,14.50
2011,07,24,00,48,14.50
2011,07,24,00,49,14.50
2011,07,24,00,50,14.60
2011,07,24,00,51,14.60
2011,07,24,00,52,14.60
2011,07,24,00,53,14.60
2011,07,24,00,54,14.60
2011,07,24,00,55,14.60
2011,07,24,00,56,14.60
2011,07,24,00,57,14.60
2011,07,24,00,58,14.60
2011,07,24,00,59,14.60
2011,07,24,01,00,14.60
2011,07,24,01,01,14.60
2011,07,24,01,02,14.60
2011,07,24,01,03,14.60
2011,07,24,01,04,14.60
2011,07,24,01,05,14.60
2011,07,24,01,06,14.60
2011,07,24,01,07,14.60
2011,07,24,01,08,14.60
2011,07,24,01,09,14.60
2011,07,24,01,10,14.70
2011,07,24,01,11,14.70
2011,07,24,01,12,14.70
2011,07,24,01,13,14.80
2011,07,24,01,14,14.80
2011,07,24,01,15,14.80
2011,07,24,01,16,14.80
2011,07,24,01,17,14.80
2011,07,24,01,18,14.80
2011,07,24,01,19,14.80
2011,07,24,01,20,14.80
2011,07,24,01,21,14.80
2011,07,24,01,22,14.80
2011,07,24,01,23,14.80
2011,07,24,01,24,14.80
2011,07,24,01,25,14.80
2011,07,24,01,26,14.80
2011,07,24,01,27,14.80
2011,07,24,01,28,14.80
2011,07,24,01,29,14.80
2011,07,24,01,30,14.80
2011,07,24,01,31,14.80
2011,07,24,01,32,14.80
2011,07,24,01,33,14.80
2011,07,24,01,34,14.80
2011,07,24,01,35,14.70
2011,07,24,01,36,14.70
2011,07,24,01,37,14.70
2011,07,24,01,38,14.70
2011,07,24,01,39,14.70
2011,07,24,01,40,14.70
2011,07,24,01,41,14.70
2011,07,24,01,42,14.60
2011,07,24,01,43,14.60
2011,07,24,01,44,14.60
2011,07,24,01,45,14.50
2011,07,24,01,46,14.50
2011,07,24,01,47,14.40
2011,07,24,01,48,14.40
2011,07,24,01,49,14.40
2011,07,24,01,50,14.30
2011,07,24,01,51,14.30
2011,07,24,01,52,14.30
2011,07,24,01,53,14.30
2011,07,24,01,54,14.30
2011,07,24,01,55,14.30
2011,07,24,01,56,14.30
2011,07,24,01,57,14.30
2011,07,24,01,58,14.30
2011,07,24,01,59,14.30
2011,07,24,02,00,14.30
2011,07,24,02,01,14.20
2011,07,24,02,02,14.20
2011,07,24,02,03,14.20
2011,07,24,02,04,14.20
2011,07,24,02,05,14.20
2011,07,24,02,06,14.20
2011,07,24,02,07,14.20
2011,07,24,02,08,14.20
2011,07,24,02,09,14.20
2011,07,24,02,10,14.10
2011,07,24,02,11,14.10
2011,07,24,02,12,14.10
2011,07,24,02,13,14.10
2011,07,24,02,14,14.10
2011,07,24,02,15,14.10
2011,07,24,02,16,14.10
2011,07,24,02,17,14.00
2011,07,24,02,18,14.00
2011,07,24,02,19,14.00
2011,07,24,02,20,13.90
2011,07,24,02,21,13.90
2011,07,24,02,22,13.90
2011,07,24,02,23,13.90
2011,07,24,02,24,13.80
2011,07,24,02,25,13.80
2011,07,24,02,26,13.80
2011,07,24,02,27,13.80
2011,07,24,02,28,13.80
2011,07,24,02,29,13.70
2011,07,24,02,30,13.70
2011,07,24,02,31,13.70
2011,07,24,02,32,13.70
2011,07,24,02,33,13.70
2011,07,24,02,34,13.70
2011,07,24,02,35,13.80
2011,07,24,02,36,13.80
2011,07,24,02,37,13.80
2011,07,24,02,38,13.80
2011,07,24,02,39,13.90
2011,07,24,02,40,13.90
2011,07,24,02,41,13.90
2011,07,24,02,42,13.90
2011,07,24,02,43,13.90
2011,07,24,02,44,13.90
2011,07,24,02,45,13.90
2011,07,24,02,46,13.90
2011,07,24,02,47,13.90
2011,07,24,02,48,13.90
2011,07,24,02,49,13.90
2011,07,24,02,50,13.90
2011,07,24,02,51,13.90
2011,07,24,02,52,13.90
2011,07,24,02,53,13.90
2011,07,24,02,54,13.80
2011,07,24,02,55,13.80
2011,07,24,02,56,13.80
2011,07,24,02,57,13.80
2011,07,24,02,58,13.80
2011,07,24,02,59,13.90
2011,07,24,03,00,13.90
2011,07,24,03,01,14.00
2011,07,24,03,02,14.00
2011,07,24,03,03,14.10
2011,07,24,03,06,14.20
2011,07,24,03,07,14.20
2011,07,24,03,08,14.20
2011,07,24,03,09,14.20
2011,07,24,03,10,14.20
2011,07,24,03,11,14.30
2011,07,24,03,12,14.30
2011,07,24,03,13,14.30
2011,07,24,03,14,14.30
2011,07,24,03,15,14.30
2011,07,24,03,16,14.30
2011,07,24,03,17,14.30
2011,07,24,03,18,14.30
2011,07,24,03,19,14.30
2011,07,24,03,20,14.30
2011,07,24,03,21,14.30
2011,07,24,03,22,14.40
2011,07,24,03,23,14.40
2011,07,24,03,24,14.40
2011,07,24,03,25,14.40
2011,07,24,03,26,14.50
2011,07,24,03,27,14.50
2011,07,24,03,28,14.60
2011,07,24,03,29,14.60
2011,07,24,03,30,14.60
2011,07,24,03,31,14.60
2011,07,24,03,32,14.70
2011,07,24,03,33,14.70
2011,07,24,03,34,14.70
2011,07,24,03,35,14.70
2011,07,24,03,36,14.70
2011,07,24,03,37,14.70
2011,07,24,03,38,14.70
2011,07,24,03,39,14.70
2011,07,24,03,40,14.70
2011,07,24,03,41,14.70
2011,07,24,03,42,14.70
2011,07,24,03,43,14.70
2011,07,24,03,44,14.80
2011,07,24,03,45,14.70
2011,07,24,03,46,14.70
2011,07,24,03,47,14.70
2011,07,24,03,48,14.70
2011,07,24,03,49,14.70
2011,07,24,03,50,14.70
2011,07,24,03,51,14.70
2011,07,24,03,52,14.70
2011,07,24,03,53,14.70
2011,07,24,03,54,14.70
2011,07,24,03,55,14.70
2011,07,24,03,56,14.70
2011,07,24,03,57,14.70
2011,07,24,03,58,14.70
2011,07,24,03,59,14.70
2011,07,24,04,00,14.70
2011,07,24,04,01,14.70
2011,07,24,04,02,14.70
2011,07,24,04,03,14.70
2011,07,24,04,04,14.60
2011,07,24,04,05,14.70
2011,07,24,04,06,14.70
2011,07,24,04,07,14.70
2011,07,24,04,08,14.70
2011,07,24,04,09,14.70
2011,07,24,04,10,14.70
2011,07,24,04,11,14.70
2011,07,24,04,12,14.70
2011,07,24,04,13,14.70
2011,07,24,04,14,14.70
2011,07,24,04,15,14.70
2011,07,24,04,16,14.70
2011,07,24,04,17,14.70
2011,07,24,04,18,14.70
2011,07,24,04,19,14.70
2011,07,24,04,20,14.70
2011,07,24,04,21,14.70
2011,07,24,04,22,14.70
2011,07,24,04,23,14.70
2011,07,24,04,24,14.70
2011,07,24,04,25,14.70
2011,07,24,04,26,14.70
2011,07,24,04,27,14.80
2011,07,24,04,28,14.70
2011,07,24,04,29,14.70
2011,07,24,04,30,14.70
2011,07,24,04,31,14.70
2011,07,24,04,32,14.70
2011,07,24,04,33,14.70
2011,07,24,04,34,14.80
2011,07,24,04,35,14.80
2011,07,24,04,36,14.90
2011,07,24,04,37,15.00
2011,07,24,04,38,15.00
2011,07,24,04,39,15.00
2011,07,24,04,40,15.00
2011,07,24,04,41,15.00
2011,07,24,04,42,15.00
2011,07,24,04,43,15.00
2011,07,24,04,44,15.00
2011,07,24,04,45,15.00
2011,07,24,04,46,15.00
2011,07,24,04,47,15.00
2011,07,24,04,48,15.00
2011,07,24,04,49,14.90
2011,07,24,04,50,14.90
2011,07,24,04,51,14.90
2011,07,24,04,52,14.90
2011,07,24,04,53,14.80
2011,07,24,04,54,14.80
2011,07,24,04,55,14.80
2011,07,24,04,56,14.80
2011,07,24,04,57,14.90
2011,07,24,04,58,14.90
2011,07,24,04,59,14.90
2011,07,24,05,00,14.90
2011,07,24,05,01,14.90
2011,07,24,05,02,14.90
2011,07,24,05,03,14.80
2011,07,24,05,04,14.80
2011,07,24,05,05,14.80
2011,07,24,05,06,14.80
2011,07,24,05,07,14.80
2011,07,24,05,08,14.70
2011,07,24,05,09,14.70
2011,07,24,05,10,14.70
2011,07,24,05,11,14.70
2011,07,24,05,12,14.70
2011,07,24,05,13,14.70
2011,07,24,05,14,14.70
2011,07,24,05,15,14.60
2011,07,24,05,16,14.70
2011,07,24,05,17,14.70
2011,07,24,05,18,14.70
2011,07,24,05,19,14.70
2011,07,24,05,20,14.70
2011,07,24,05,21,14.70
2011,07,24,05,22,14.70
2011,07,24,05,23,14.70
2011,07,24,05,24,14.70
2011,07,24,05,25,14.70
2011,07,24,05,26,14.70
2011,07,24,05,27,14.60
2011,07,24,05,28,14.60
2011,07,24,05,29,14.60
2011,07,24,05,30,14.60
2011,07,24,05,31,14.60
2011,07,24,05,32,14.50
2011,07,24,05,33,14.50
2011,07,24,05,34,14.50
2011,07,24,05,35,14.40
2011,07,24,05,36,14.40
2011,07,24,05,37,14.40
2011,07,24,05,38,14.40
2011,07,24,05,39,14.40
2011,07,24,05,40,14.40
2011,07,24,05,41,14.40
2011,07,24,05,42,14.40
2011,07,24,05,43,14.40
2011,07,24,05,44,14.40
2011,07,24,05,45,14.40
2011,07,24,05,46,14.40
2011,07,24,05,47,14.30
2011,07,24,05,48,14.30
2011,07,24,05,49,14.30
2011,07,24,05,50,14.30
2011,07,24,05,51,14.30
2011,07,24,05,52,14.20
2011,07,24,05,53,14.20
2011,07,24,05,54,14.20
2011,07,24,05,55,14.20
2011,07,24,05,56,14.20
2011,07,24,05,57,14.20
2011,07,24,05,58,14.30
2011,07,24,05,59,14.30
2011,07,24,06,00,14.30
2011,07,24,06,01,14.30
2011,07,24,06,02,14.30
2011,07,24,06,03,14.30
2011,07,24,06,04,14.30
2011,07,24,06,05,14.30
2011,07,24,06,06,14.30
2011,07,24,06,07,14.30
2011,07,24,06,08,14.30
2011,07,24,06,09,14.30
2011,07,24,06,10,14.30
2011,07,24,06,11,14.30
2011,07,24,06,12,14.40
2011,07,24,06,13,14.40
2011,07,24,06,14,14.40
2011,07,24,06,15,14.40
2011,07,24,06,16,14.50
2011,07,24,06,17,14.50
2011,07,24,06,18,14.50
2011,07,24,06,19,14.50
2011,07,24,06,20,14.50
2011,07,24,06,21,14.50
2011,07,24,06,22,14.50
2011,07,24,06,23,14.50
2011,07,24,06,24,14.50
2011,07,24,06,25,14.50
2011,07,24,06,26,14.40
2011,07,24,06,27,14.40
2011,07,24,06,28,14.40
2011,07,24,06,29,14.40
2011,07,24,06,30,14.40
2011,07,24,06,31,14.50
2011,07,24,06,32,14.50
2011,07,24,06,33,14.50
2011,07,24,06,34,14.50
2011,07,24,06,35,14.60
2011,07,24,06,36,14.60
2011,07,24,06,37,14.60
2011,07,24,06,38,14.60
2011,07,24,06,39,14.60
2011,07,24,06,40,14.70
2011,07,24,06,41,14.70
2011,07,24,06,42,14.70
2011,07,24,06,43,14.70
2011,07,24,06,44,14.70
2011,07,24,06,45,14.70
2011,07,24,06,46,14.70
2011,07,24,06,47,14.80
2011,07,24,06,48,14.80
2011,07,24,06,49,14.80
2011,07,24,06,50,14.80
2011,07,24,06,51,14.90
2011,07,24,06,52,14.90
2011,07,24,06,53,14.90
2011,07,24,06,54,15.00
2011,07,24,06,55,15.00
2011,07,24,06,56,15.00
2011,07,24,06,57,15.00
2011,07,24,06,58,15.00
2011,07,24,06,59,15.00
2011,07,24,07,00,15.00
2011,07,24,07,01,15.10
2011,07,24,07,02,15.20
2011,07,24,07,03,15.30
2011,07,24,07,04,15.30
2011,07,24,07,05,15.40
2011,07,24,07,06,15.40
2011,07,24,07,07,15.50
2011,07,24,07,08,15.50
2011,07,24,07,09,15.60
2011,07,24,07,10,15.60
2011,07,24,07,11,15.70
2011,07,24,07,12,15.70
2011,07,24,07,13,15.80
2011,07,24,07,14,15.80
2011,07,24,07,15,15.90
2011,07,24,07,16,15.90
2011,07,24,07,17,15.90
2011,07,24,07,18,16.00
2011,07,24,07,19,16.00
2011,07,24,07,20,16.10
2011,07,24,07,21,16.10
2011,07,24,07,22,16.10
2011,07,24,07,23,16.10
2011,07,24,07,24,16.10
2011,07,24,07,25,16.10
2011,07,24,07,26,16.20
2011,07,24,07,27,16.20
2011,07,24,07,28,16.20
2011,07,24,07,29,16.20
2011,07,24,07,30,16.20
2011,07,24,07,31,16.30
2011,07,24,07,32,16.30
2011,07,24,07,33,16.30
2011,07,24,07,34,16.30
2011,07,24,07,35,16.30
2011,07,24,07,36,16.40
2011,07,24,07,37,16.40
2011,07,24,07,38,16.40
2011,07,24,07,39,16.50
2011,07,24,07,40,16.50
2011,07,24,07,41,16.50
2011,07,24,07,42,16.60
2011,07,24,07,43,16.60
2011,07,24,07,44,16.60
2011,07,24,07,45,16.70
2011,07,24,07,46,16.70
2011,07,24,07,47,16.70
2011,07,24,07,48,16.70
2011,07,24,07,49,16.70
2011,07,24,07,50,16.80
2011,07,24,07,51,16.80
2011,07,24,07,52,16.80
2011,07,24,07,53,16.80
2011,07,24,07,54,16.90
2011,07,24,07,55,16.90
2011,07,24,07,56,16.90
2011,07,24,07,57,16.90
2011,07,24,07,58,16.90
2011,07,24,07,59,16.90
2011,07,24,08,00,16.90
2011,07,24,08,01,16.90
2011,07,24,08,02,16.90
2011,07,24,08,03,16.90
2011,07,24,08,04,17.00
2011,07,24,08,05,17.00
2011,07,24,08,06,17.00
2011,07,24,08,07,17.00
2011,07,24,08,08,17.00
2011,07,24,08,09,17.10
2011,07,24,08,10,17.10
2011,07,24,08,11,17.10
2011,07,24,08,12,17.20
2011,07,24,08,13,17.20
2011,07,24,08,14,17.20
2011,07,24,08,15,17.30
2011,07,24,08,16,17.30
2011,07,24,08,17,17.30
2011,07,24,08,18,17.30
2011,07,24,08,19,17.30
2011,07,24,08,20,17.40
2011,07,24,08,21,17.40
2011,07,24,08,22,17.40
2011,07,24,08,23,17.40
2011,07,24,08,24,17.50
2011,07,24,08,25,17.50
2011,07,24,08,26,17.60
2011,07,24,08,27,17.60
2011,07,24,08,28,17.60
2011,07,24,08,29,17.60
2011,07,24,08,30,17.60
2011,07,24,08,31,17.50
2011,07,24,08,32,17.50
2011,07,24,08,33,17.60
2011,07,24,08,34,17.60
2011,07,24,08,35,17.60
2011,07,24,08,36,17.60
2011,07,24,08,37,17.60
2011,07,24,08,38,17.60
2011,07,24,08,39,17.60
2011,07,24,08,40,17.70
2011,07,24,08,41,17.70
2011,07,24,08,42,17.70
2011,07,24,08,43,17.70
2011,07,24,08,44,17.70
2011,07,24,08,45,17.70
2011,07,24,08,46,17.80
2011,07,24,08,47,17.80
2011,07,24,08,48,17.80
2011,07,24,08,49,17.80
2011,07,24,08,50,17.80
2011,07,24,08,51,17.80
2011,07,24,08,52,17.80
2011,07,24,08,53,17.80
2011,07,24,08,54,17.80
2011,07,24,08,55,17.80
2011,07,24,08,56,17.80
2011,07,24,08,57,17.90
2011,07,24,08,58,17.90
2011,07,24,08,59,17.90
2011,07,24,09,00,17.90
2011,07,24,09,01,18.00
2011,07,24,09,02,18.00
2011,07,24,09,03,18.10
2011,07,24,09,04,18.10
2011,07,24,09,05,18.10
2011,07,24,09,06,18.10
2011,07,24,09,07,18.10
2011,07,24,09,08,18.10
2011,07,24,09,09,18.20
2011,07,24,09,10,18.20
2011,07,24,09,11,18.20
2011,07,24,09,12,18.20
2011,07,24,09,13,18.30
2011,07,24,09,14,18.30
2011,07,24,09,15,18.30
2011,07,24,09,16,18.40
2011,07,24,09,17,18.40
2011,07,24,09,18,18.40
2011,07,24,09,19,18.40
2011,07,24,09,20,18.40
2011,07,24,09,21,18.40
2011,07,24,09,22,18.40
2011,07,24,09,23,18.40
2011,07,24,09,24,18.40
2011,07,24,09,25,18.40
2011,07,24,09,26,18.40
2011,07,24,09,27,18.40
2011,07,24,09,28,18.40
2011,07,24,09,29,18.40
2011,07,24,09,30,18.50
2011,07,24,09,31,18.50
2011,07,24,09,32,18.60
2011,07,24,09,33,18.60
2011,07,24,09,34,18.70
2011,07,24,09,35,18.70
2011,07,24,09,36,18.80
2011,07,24,09,37,18.80
2011,07,24,09,38,18.90
2011,07,24,09,39,18.90
2011,07,24,09,40,18.90
2011,07,24,09,41,19.00
2011,07,24,09,42,19.10
2011,07,24,09,43,19.10
2011,07,24,09,44,19.20
2011,07,24,09,45,19.20
2011,07,24,09,46,19.30
2011,07,24,09,47,19.40
2011,07,24,09,48,19.40
2011,07,24,09,49,19.50
2011,07,24,09,50,19.50
2011,07,24,09,51,19.60
2011,07,24,09,52,19.70
2011,07,24,09,53,19.70
2011,07,24,09,54,19.80
2011,07,24,09,55,19.80
2011,07,24,09,56,19.90
2011,07,24,09,57,20.00
2011,07,24,09,58,20.00
2011,07,24,09,59,20.10
2011,07,24,10,00,20.10
2011,07,24,10,01,20.20
2011,07,24,10,02,20.20
2011,07,24,10,03,20.20
2011,07,24,10,04,20.20
2011,07,24,10,05,20.30
2011,07,24,10,06,20.30
2011,07,24,10,07,20.40
2011,07,24,10,08,20.40
2011,07,24,10,09,20.40
2011,07,24,10,10,20.40
2011,07,24,10,11,20.50
2011,07,24,10,12,20.60
2011,07,24,10,13,20.70
2011,07,24,10,14,20.70
2011,07,24,10,15,20.80
2011,07,24,10,16,20.80
2011,07,24,10,17,20.90
2011,07,24,10,18,20.90
2011,07,24,10,19,21.00
2011,07,24,10,20,21.10
2011,07,24,10,21,21.20
2011,07,24,10,22,21.20
2011,07,24,10,23,21.30
2011,07,24,10,24,21.30
2011,07,24,10,25,21.40
2011,07,24,10,26,21.40
2011,07,24,10,27,21.50
2011,07,24,10,28,21.50
2011,07,24,10,29,21.60
2011,07,24,10,30,21.70
2011,07,24,10,31,21.80
2011,07,24,10,32,21.80
2011,07,24,10,33,21.80
2011,07,24,10,34,21.70
2011,07,24,10,35,21.70
2011,07,24,10,36,21.80
2011,07,24,10,37,21.80
2011,07,24,10,38,21.80
2011,07,24,10,39,21.80
2011,07,24,10,40,21.80
2011,07,24,10,41,21.90
2011,07,24,10,42,21.90
2011,07,24,10,43,22.00
2011,07,24,10,44,22.10
2011,07,24,10,45,22.10
2011,07,24,10,46,22.10
2011,07,24,10,47,22.10
2011,07,24,10,48,22.10
2011,07,24,10,49,22.10
2011,07,24,10,50,22.10
2011,07,24,10,51,22.10
2011,07,24,10,52,22.20
2011,07,24,10,53,22.20
2011,07,24,10,54,22.20
2011,07,24,10,55,22.20
2011,07,24,10,56,22.20
2011,07,24,10,57,22.20
2011,07,24,10,58,22.10
2011,07,24,10,59,22.20
2011,07,24,11,00,22.20
2011,07,24,11,01,22.20
2011,07,24,11,02,22.20
2011,07,24,11,03,22.30
2011,07,24,11,04,22.40
2011,07,24,11,05,22.40
2011,07,24,11,06,22.50
2011,07,24,11,07,22.60
2011,07,24,11,08,22.70
2011,07,24,11,09,22.70
2011,07,24,11,10,22.80
2011,07,24,11,11,22.80
2011,07,24,11,12,22.80
2011,07,24,11,13,22.90
2011,07,24,11,14,22.90
2011,07,24,11,15,22.90
2011,07,24,11,16,22.90
2011,07,24,11,17,22.80
2011,07,24,11,18,22.80
2011,07,24,11,19,22.90
2011,07,24,11,20,22.90
2011,07,24,11,21,23.00
2011,07,24,11,22,23.00
2011,07,24,11,23,23.10
2011,07,24,11,24,23.10
2011,07,24,11,25,23.00
2011,07,24,11,26,23.00
2011,07,24,11,27,23.10
2011,07,24,11,28,23.00
2011,07,24,11,29,23.00
2011,07,24,11,30,23.10
2011,07,24,11,31,23.10
2011,07,24,11,32,23.10
2011,07,24,11,33,23.10
2011,07,24,11,34,23.10
2011,07,24,11,35,23.10
2011,07,24,11,36,23.10
2011,07,24,11,37,23.10
2011,07,24,11,38,23.00
2011,07,24,11,39,23.10
2011,07,24,11,40,23.10
2011,07,24,11,41,23.20
2011,07,24,11,42,23.20
2011,07,24,11,43,23.20
2011,07,24,11,44,23.20
2011,07,24,11,45,23.20
2011,07,24,11,46,23.20
2011,07,24,11,47,23.20
2011,07,24,11,48,23.30
2011,07,24,11,49,23.30
2011,07,24,11,50,23.30
2011,07,24,11,51,23.40
2011,07,24,11,52,23.50
2011,07,24,11,53,23.60
2011,07,24,11,54,23.60
2011,07,24,11,55,23.60
2011,07,24,11,56,23.60
2011,07,24,11,57,23.60
2011,07,24,11,58,23.50
2011,07,24,11,59,23.60
2011,07,24,12,00,23.60
2011,07,24,12,01,23.60
2011,07,24,12,02,23.70
2011,07,24,12,03,23.70
2011,07,24,12,04,23.60
2011,07,24,12,05,23.60
2011,07,24,12,06,23.60
2011,07,24,12,07,23.60
2011,07,24,12,08,23.60
2011,07,24,12,09,23.60
2011,07,24,12,10,23.40
2011,07,24,12,11,23.30
2011,07,24,12,12,23.30
2011,07,24,12,13,23.30
2011,07,24,12,14,23.40
2011,07,24,12,15,23.40
2011,07,24,12,16,23.50
2011,07,24,12,17,23.60
2011,07,24,12,18,23.50
2011,07,24,12,19,23.50
2011,07,24,12,20,23.40
2011,07,24,12,21,23.30
2011,07,24,12,22,23.30
2011,07,24,12,23,23.30
2011,07,24,12,24,23.30
2011,07,24,12,25,23.40
2011,07,24,12,26,23.50
2011,07,24,12,27,23.50
2011,07,24,12,28,23.50
2011,07,24,12,29,23.60
2011,07,24,12,30,23.60
2011,07,24,12,31,23.70
2011,07,24,12,32,23.70
2011,07,24,12,33,23.80
2011,07,24,12,34,24.00
2011,07,24,12,35,24.00
2011,07,24,12,36,23.90
2011,07,24,12,37,23.80
2011,07,24,12,38,23.80
2011,07,24,12,39,23.70
2011,07,24,12,40,23.60
2011,07,24,12,41,23.60
2011,07,24,12,42,23.70
2011,07,24,12,43,23.70
2011,07,24,12,44,23.70
2011,07,24,12,45,23.70
2011,07,24,12,46,23.70
2011,07,24,12,47,23.70
2011,07,24,12,48,23.70
2011,07,24,12,49,23.70
2011,07,24,12,50,23.60
2011,07,24,12,51,23.60
2011,07,24,12,52,23.60
2011,07,24,12,53,23.60
2011,07,24,12,54,23.70
2011,07,24,12,55,23.80
2011,07,24,12,56,23.80
2011,07,24,12,57,23.90
2011,07,24,12,58,24.10
2011,07,24,12,59,24.30
2011,07,24,13,00,24.40
2011,07,24,13,01,24.50
2011,07,24,13,02,24.60
2011,07,24,13,03,24.60
2011,07,24,13,04,24.60
2011,07,24,13,05,24.50
2011,07,24,13,06,24.40
2011,07,24,13,07,24.30
2011,07,24,13,08,24.30
2011,07,24,13,09,24.40
2011,07,24,13,10,24.50
2011,07,24,13,11,24.50
2011,07,24,13,12,24.60
2011,07,24,13,13,24.70
2011,07,24,13,14,24.90
2011,07,24,13,15,25.00
2011,07,24,13,16,25.20
2011,07,24,13,17,25.30
2011,07,24,13,18,25.40
2011,07,24,13,19,25.30
2011,07,24,13,20,25.30
2011,07,24,13,21,25.40
2011,07,24,13,22,25.40
2011,07,24,13,23,25.40
2011,07,24,13,24,25.50
2011,07,24,13,25,25.50
2011,07,24,13,26,25.40
2011,07,24,13,27,25.40
2011,07,24,13,28,25.40
2011,07,24,13,29,25.30
2011,07,24,13,30,25.40
2011,07,24,13,31,25.40
2011,07,24,13,32,25.40
2011,07,24,13,33,25.40
2011,07,24,13,34,25.30
2011,07,24,13,35,25.30
2011,07,24,13,36,25.30
2011,07,24,13,37,25.40
2011,07,24,13,38,25.50
2011,07,24,13,39,25.60
2011,07,24,13,40,25.70
2011,07,24,13,41,25.80
2011,07,24,13,42,25.90
2011,07,24,13,43,25.90
2011,07,24,13,44,26.00
2011,07,24,13,45,26.00
2011,07,24,13,46,26.10
2011,07,24,13,47,26.10
2011,07,24,13,48,26.20
2011,07,24,13,49,26.20
2011,07,24,13,50,26.20
2011,07,24,13,51,26.20
2011,07,24,13,52,26.20
2011,07,24,13,53,26.20
2011,07,24,13,54,26.20
2011,07,24,13,55,26.20
2011,07,24,13,56,26.20
2011,07,24,13,57,26.20
2011,07,24,13,58,26.30
2011,07,24,13,59,26.30
2011,07,24,14,00,26.40
2011,07,24,14,01,26.40
2011,07,24,14,02,26.40
2011,07,24,14,03,26.40
2011,07,24,14,04,26.40
2011,07,24,14,05,26.40
2011,07,24,14,06,26.40
2011,07,24,14,07,26.40
2011,07,24,14,08,26.50
2011,07,24,14,09,26.50
2011,07,24,14,10,26.60
2011,07,24,14,11,26.60
2011,07,24,14,12,26.60
2011,07,24,14,13,26.80
2011,07,24,14,14,26.90
2011,07,24,14,15,27.00
2011,07,24,14,16,27.10
2011,07,24,14,17,27.10
2011,07,24,14,18,27.20
2011,07,24,14,19,27.20
2011,07,24,14,20,27.20
2011,07,24,14,21,27.20
2011,07,24,14,22,27.30
2011,07,24,14,23,27.30
2011,07,24,14,24,27.30
2011,07,24,14,25,27.20
2011,07,24,14,26,27.10
2011,07,24,14,27,27.10
2011,07,24,14,28,27.10
2011,07,24,14,29,27.10
2011,07,24,14,30,27.10
2011,07,24,14,31,27.10
2011,07,24,14,32,27.10
2011,07,24,14,33,27.20
2011,07,24,14,34,27.20
2011,07,24,14,35,27.20
2011,07,24,14,36,27.00
2011,07,24,14,37,26.80
2011,07,24,14,38,26.70
2011,07,24,14,39,26.60
2011,07,24,14,40,26.40
2011,07,24,14,41,26.30
2011,07,24,14,42,26.30
2011,07,24,14,43,26.20
2011,07,24,14,44,26.00
2011,07,24,14,45,26.00
2011,07,24,14,46,25.90
2011,07,24,14,47,25.90
2011,07,24,14,48,25.70
2011,07,24,14,49,25.50
2011,07,24,14,50,25.40
2011,07,24,14,51,25.40
2011,07,24,14,52,25.40
2011,07,24,14,53,25.50
2011,07,24,14,54,25.50
2011,07,24,14,55,25.40
2011,07,24,14,56,25.40
2011,07,24,14,57,25.30
2011,07,24,14,58,25.20
2011,07,24,14,59,25.30
2011,07,24,15,00,25.30
2011,07,24,15,01,25.30
2011,07,24,15,02,25.20
2011,07,24,15,03,25.10
2011,07,24,15,04,25.00
2011,07,24,15,05,25.00
2011,07,24,15,06,24.90
2011,07,24,15,07,24.90
2011,07,24,15,08,24.80
2011,07,24,15,09,24.80
2011,07,24,15,10,24.80
2011,07,24,15,11,24.70
2011,07,24,15,12,24.60
2011,07,24,15,13,24.60
2011,07,24,15,14,24.50
2011,07,24,15,15,24.50
2011,07,24,15,16,24.50
2011,07,24,15,17,24.50
2011,07,24,15,18,24.60
2011,07,24,15,19,24.70
2011,07,24,15,20,24.80
2011,07,24,15,21,24.90
2011,07,24,15,22,25.00
2011,07,24,15,23,25.00
2011,07,24,15,24,24.90
2011,07,24,15,25,24.90
2011,07,24,15,26,25.00
2011,07,24,15,27,25.00
2011,07,24,15,28,25.20
2011,07,24,15,29,25.20
2011,07,24,15,30,25.30
2011,07,24,15,31,25.40
2011,07,24,15,32,25.50
2011,07,24,15,33,25.50
2011,07,24,15,34,25.50
2011,07,24,15,35,25.60
2011,07,24,15,36,25.80
2011,07,24,15,37,26.00
2011,07,24,15,38,26.20
2011,07,24,15,39,26.30
2011,07,24,15,40,26.30
2011,07,24,15,41,26.30
2011,07,24,15,42,26.20
2011,07,24,15,43,26.10
2011,07,24,15,44,26.00
2011,07,24,15,45,26.00
2011,07,24,15,46,26.00
2011,07,24,15,47,26.00
2011,07,24,15,48,25.90
2011,07,24,15,49,25.90
2011,07,24,15,50,25.90
2011,07,24,15,51,25.90
2011,07,24,15,52,25.90
2011,07,24,15,53,25.80
2011,07,24,15,54,25.70
2011,07,24,15,55,25.70
2011,07,24,15,56,25.70
2011,07,24,15,57,25.80
2011,07,24,15,58,25.80
2011,07,24,15,59,25.90
2011,07,24,16,00,25.90
2011,07,24,16,01,26.00
2011,07,24,16,02,26.00
2011,07,24,16,03,26.10
2011,07,24,16,04,26.20
2011,07,24,16,05,26.20
2011,07,24,16,06,26.30
2011,07,24,16,07,26.30
2011,07,24,16,08,26.30
2011,07,24,16,09,26.40
2011,07,24,16,10,26.40
2011,07,24,16,11,26.50
2011,07,24,16,12,26.50
2011,07,24,16,13,26.40
2011,07,24,16,14,26.50
2011,07,24,16,15,26.50
2011,07,24,16,16,26.60
2011,07,24,16,17,26.80
2011,07,24,16,18,26.90
2011,07,24,16,19,27.00
2011,07,24,16,20,27.00
2011,07,24,16,21,27.10
2011,07,24,16,22,27.10
2011,07,24,16,23,27.00
2011,07,24,16,24,26.90
2011,07,24,16,25,26.90
2011,07,24,16,26,26.90
2011,07,24,16,27,26.90
2011,07,24,16,28,27.00
2011,07,24,16,29,27.00
2011,07,24,16,30,27.10
2011,07,24,16,31,27.20
2011,07,24,16,32,27.20
2011,07,24,16,33,27.20
2011,07,24,16,34,27.20
2011,07,24,16,35,27.10
2011,07,24,16,36,27.00
2011,07,24,16,37,26.90
2011,07,24,16,38,27.00
2011,07,24,16,39,27.00
2011,07,24,16,40,27.20
2011,07,24,16,41,27.20
2011,07,24,16,42,27.20
2011,07,24,16,43,27.00
2011,07,24,16,44,26.90
2011,07,24,16,45,26.90
2011,07,24,16,46,26.90
2011,07,24,16,47,26.90
2011,07,24,16,48,26.80
2011,07,24,16,49,26.90
2011,07,24,16,50,26.90
2011,07,24,16,51,27.00
2011,07,24,16,52,27.10
2011,07,24,16,53,27.30
2011,07,24,16,54,27.50
2011,07,24,16,55,27.60
2011,07,24,16,56,27.70
2011,07,24,16,57,27.70
2011,07,24,16,58,27.60
2011,07,24,16,59,27.60
2011,07,24,17,00,27.50
2011,07,24,17,01,27.30
2011,07,24,17,02,27.00
2011,07,24,17,03,26.70
2011,07,24,17,04,26.50
2011,07,24,17,05,26.20
2011,07,24,17,06,26.00
2011,07,24,17,07,25.90
2011,07,24,17,08,25.80
2011,07,24,17,09,25.70
2011,07,24,17,10,25.60
2011,07,24,17,11,25.70
2011,07,24,17,12,25.80
2011,07,24,17,13,25.90
2011,07,24,17,14,25.90
2011,07,24,17,15,25.90
2011,07,24,17,16,25.80
2011,07,24,17,17,25.80
2011,07,24,17,18,25.70
2011,07,24,17,19,25.60
2011,07,24,17,20,25.70
2011,07,24,17,21,25.80